When you browse on this site, cookies collect data to enhance your experience and personalize the content and advertising you see.
Visit our Privacy Policy to learn more. By continuing to use the site, you agree to this use of cookies and data.
  • In Schweiz
  • Länderverzeichnis
  • Für 7 Tage
  • Wassertemperatur
  • Wetterkarte
  • Widgets
  • user-avatar
    Anmelden

    Stündliche Wetter Zaranj

    Heute, 16 Oktober, Mittwoch

    Zeit Temperatur Niederschläge Wind Luftdruck Luftfeuchtigkeit
    00:00 +17°C° 0 mm 6 m/S 721 mmHg 34%
    01:00 +17°C° 0 mm 6 m/S 721 mmHg 34%
    02:00 +16°C° 0 mm 6 m/S 721 mmHg 34%
    03:00 +16°C° 0 mm 6 m/S 721 mmHg 35%
    04:00 +15°C° 0 mm 5 m/S 721 mmHg 35%
    05:00 +16°C° 0 mm 5 m/S 721 mmHg 35%
    06:00 +16°C° 0 mm 5 m/S 722 mmHg 34%
    07:00 +17°C° 0 mm 4 m/S 722 mmHg 33%
    08:00 +19°C° 0 mm 5 m/S 722 mmHg 29%
    09:00 +22°C° 0 mm 5 m/S 722 mmHg 24%
    10:00 +24°C° 0 mm 6 m/S 723 mmHg 20%
    11:00 +26°C° 0 mm 5 m/S 722 mmHg 18%
    12:00 +27°C° 0 mm 5 m/S 721 mmHg 17%
    13:00 +29°C° 0 mm 4 m/S 721 mmHg 15%
    14:00 +29°C° 0 mm 3 m/S 720 mmHg 14%
    15:00 +29°C° 0 mm 3 m/S 720 mmHg 14%
    16:00 +29°C° 0 mm 2 m/S 720 mmHg 14%
    17:00 +26°C° 0 mm 2 m/S 720 mmHg 17%
    18:00 +24°C° 0 mm 1 m/S 719 mmHg 21%
    19:00 +21°C° 0 mm 1 m/S 719 mmHg 24%
    20:00 +20°C° 0 mm 2 m/S 720 mmHg 24%
    21:00 +20°C° 0 mm 3 m/S 720 mmHg 25%
    22:00 +21°C° 0 mm 4 m/S 720 mmHg 25%
    23:00 +20°C° 0 mm 4 m/S 720 mmHg 26%

    Morgen, 17 Oktober, Donnerstag

    Zeit Temperatur Niederschläge Wind Luftdruck Luftfeuchtigkeit
    00:00 +19°C° 0 mm 4 m/S 720 mmHg 27%
    01:00 +19°C° 0 mm 4 m/S 720 mmHg 28%
    02:00 +19°C° 0 mm 5 m/S 720 mmHg 30%
    03:00 +17°C° 0 mm 5 m/S 720 mmHg 31%
    04:00 +17°C° 0 mm 5 m/S 720 mmHg 32%
    05:00 +17°C° 0 mm 5 m/S 721 mmHg 32%
    06:00 +19°C° 0 mm 5 m/S 721 mmHg 32%
    07:00 +19°C° 0 mm 5 m/S 722 mmHg 32%
    08:00 +21°C° 0 mm 6 m/S 722 mmHg 27%
    09:00 +24°C° 0 mm 7 m/S 722 mmHg 22%
    10:00 +27°C° 0 mm 8 m/S 723 mmHg 17%
    11:00 +29°C° 0 mm 8 m/S 722 mmHg 15%
    12:00 +31°C° 0 mm 8 m/S 722 mmHg 13%
    13:00 +32°C° 0 mm 7 m/S 721 mmHg 12%
    14:00 +32°C° 0 mm 7 m/S 721 mmHg 12%
    15:00 +31°C° 0 mm 8 m/S 720 mmHg 12%
    16:00 +31°C° 0 mm 8 m/S 720 mmHg 12%
    17:00 +28°C° 0 mm 7 m/S 720 mmHg 15%
    18:00 +26°C° 0 mm 7 m/S 720 mmHg 18%
    19:00 +24°C° 0 mm 6 m/S 720 mmHg 21%
    20:00 +23°C° 0 mm 7 m/S 720 mmHg 22%
    21:00 +23°C° 0 mm 7 m/S 721 mmHg 23%
    22:00 +23°C° 0 mm 8 m/S 721 mmHg 24%
    23:00 +22°C° 0 mm 8 m/S 721 mmHg 25%

    übermorgen, 18 Oktober, Freitag

    Zeit Temperatur Niederschläge Wind Luftdruck Luftfeuchtigkeit
    00:00 +21°C° 0 mm 8 m/S 720 mmHg 27%
    01:00 +20°C° 0 mm 8 m/S 720 mmHg 28%
    02:00 +18°C° 0 mm 7 m/S 720 mmHg 30%
    03:00 +18°C° 0 mm 7 m/S 720 mmHg 32%
    04:00 +17°C° 0 mm 6 m/S 719 mmHg 34%
    05:00 +19°C° 0 mm 6 m/S 720 mmHg 33%
    06:00 +19°C° 0 mm 6 m/S 720 mmHg 32%
    07:00 +19°C° 0 mm 6 m/S 721 mmHg 32%
    08:00 +21°C° 0 mm 8 m/S 721 mmHg 28%
    09:00 +23°C° 0 mm 9 m/S 721 mmHg 24%
    10:00 +27°C° 0 mm 10 m/S 721 mmHg 20%
    11:00 +28°C° 0 mm 9 m/S 721 mmHg 18%
    12:00 +29°C° 0 mm 8 m/S 720 mmHg 16%
    13:00 +31°C° 0 mm 8 m/S 720 mmHg 14%
    14:00 +30°C° 0 mm 7 m/S 720 mmHg 14%
    15:00 +30°C° 0 mm 6 m/S 719 mmHg 14%
    16:00 +30°C° 0 mm 6 m/S 719 mmHg 13%
    17:00 +28°C° 0 mm 5 m/S 719 mmHg 16%
    18:00 +25°C° 0 mm 4 m/S 719 mmHg 19%
    19:00 +22°C° 0 mm 4 m/S 719 mmHg 22%
    20:00 +21°C° 0 mm 4 m/S 719 mmHg 24%
    21:00 +21°C° 0 mm 4 m/S 719 mmHg 26%
    22:00 +20°C° 0 mm 4 m/S 720 mmHg 28%
    23:00 +20°C° 0 mm 4 m/S 720 mmHg 28%

    19 Oktober, Samstag

    Zeit Temperatur Niederschläge Wind Luftdruck Luftfeuchtigkeit
    00:00 +19°C° 0 mm 4 m/S 719 mmHg 29%
    01:00 +19°C° 0 mm 4 m/S 719 mmHg 29%
    02:00 +18°C° 0 mm 4 m/S 719 mmHg 29%
    03:00 +18°C° 0 mm 4 m/S 719 mmHg 29%
    04:00 +17°C° 0 mm 4 m/S 719 mmHg 29%
    05:00 +17°C° 0 mm 3 m/S 720 mmHg 29%
    06:00 +18°C° 0 mm 3 m/S 720 mmHg 28%
    07:00 +18°C° 0 mm 3 m/S 721 mmHg 28%
    08:00 +20°C° 0 mm 3 m/S 721 mmHg 24%
    09:00 +24°C° 0 mm 3 m/S 721 mmHg 20%
    10:00 +26°C° 0 mm 3 m/S 722 mmHg 16%
    11:00 +28°C° 0 mm 3 m/S 721 mmHg 15%
    12:00 +29°C° 0 mm 2 m/S 721 mmHg 13%
    13:00 +30°C° 0 mm 2 m/S 720 mmHg 11%
    14:00 +30°C° 0 mm 2 m/S 720 mmHg 10%
    15:00 +30°C° 0 mm 2 m/S 720 mmHg 10%
    16:00 +31°C° 0 mm 2 m/S 719 mmHg 9%
    17:00 +27°C° 0 mm 2 m/S 719 mmHg 12%
    18:00 +24°C° 0 mm 1 m/S 719 mmHg 14%
    19:00 +20°C° 0 mm 1 m/S 719 mmHg 17%
    20:00 +20°C° 0 mm 1 m/S 719 mmHg 17%
    21:00 +19°C° 0 mm 1 m/S 719 mmHg 18%
    22:00 +19°C° 0 mm 1 m/S 719 mmHg 18%
    23:00 +19°C° 0 mm 1 m/S 720 mmHg 20%

    20 Oktober, Sonntag

    Zeit Temperatur Niederschläge Wind Luftdruck Luftfeuchtigkeit
    00:00 +18°C° 0 mm 2 m/S 720 mmHg 22%
    01:00 +18°C° 0 mm 2 m/S 720 mmHg 24%
    02:00 +18°C° 0 mm 2 m/S 720 mmHg 25%
    03:00 +17°C° 0 mm 2 m/S 719 mmHg 25%
    04:00 +17°C° 0 mm 2 m/S 719 mmHg 26%
    05:00 +18°C° 0 mm 2 m/S 720 mmHg 24%
    06:00 +18°C° 0 mm 2 m/S 720 mmHg 22%
    07:00 +19°C° 0 mm 2 m/S 721 mmHg 20%
    08:00 +23°C° 0 mm 2 m/S 721 mmHg 17%
    09:00 +26°C° 0 mm 2 m/S 722 mmHg 14%
    10:00 +29°C° 0 mm 2 m/S 722 mmHg 11%
    11:00 +30°C° 0 mm 2 m/S 722 mmHg 10%
    12:00 +31°C° 0 mm 2 m/S 721 mmHg 8%
    13:00 +34°C° 0 mm 2 m/S 721 mmHg 7%
    14:00 +32°C° 0 mm 2 m/S 720 mmHg 7%
    15:00 +32°C° 0 mm 2 m/S 720 mmHg 6%
    16:00 +33°C° 0 mm 3 m/S 719 mmHg 6%
    17:00 +29°C° 0 mm 2 m/S 719 mmHg 8%
    18:00 +25°C° 0 mm 1 m/S 719 mmHg 10%
    19:00 +19°C° 0 mm 0 m/S 719 mmHg 13%
    20:00 +22°C° 0 mm 1 m/S 719 mmHg 13%
    21:00 +21°C° 0 mm 2 m/S 719 mmHg 13%
    22:00 +22°C° 0 mm 3 m/S 720 mmHg 13%
    23:00 +21°C° 0 mm 3 m/S 720 mmHg 15%

    21 Oktober, Montag

    Zeit Temperatur Niederschläge Wind Luftdruck Luftfeuchtigkeit
    00:00 +21°C° 0 mm 3 m/S 720 mmHg 17%
    01:00 +21°C° 0 mm 4 m/S 720 mmHg 20%
    02:00 +20°C° 0 mm 3 m/S 719 mmHg 21%
    03:00 +20°C° 0 mm 3 m/S 719 mmHg 22%
    04:00 +19°C° 0 mm 3 m/S 719 mmHg 23%
    05:00 +19°C° 0 mm 3 m/S 720 mmHg 22%
    06:00 +20°C° 0 mm 3 m/S 720 mmHg 22%
    07:00 +20°C° 0 mm 3 m/S 720 mmHg 21%
    08:00 +24°C° 0 mm 3 m/S 721 mmHg 18%
    09:00 +26°C° 0 mm 4 m/S 721 mmHg 14%
    10:00 +29°C° 0 mm 4 m/S 721 mmHg 11%
    11:00 +30°C° 0 mm 4 m/S 721 mmHg 10%
    12:00 +33°C° 0 mm 3 m/S 720 mmHg 9%
    13:00 +34°C° 0 mm 3 m/S 720 mmHg 8%
    14:00 +34°C° 0 mm 3 m/S 719 mmHg 8%
    15:00 +34°C° 0 mm 2 m/S 719 mmHg 8%
    16:00 +34°C° 0 mm 2 m/S 718 mmHg 8%
    17:00 +30°C° 0 mm 2 m/S 718 mmHg 10%
    18:00 +26°C° 0 mm 1 m/S 718 mmHg 13%
    19:00 +23°C° 0 mm 1 m/S 718 mmHg 15%
    20:00 +23°C° 0 mm 1 m/S 718 mmHg 15%
    21:00 +23°C° 0 mm 1 m/S 718 mmHg 15%
    22:00 +23°C° 0 mm 2 m/S 718 mmHg 15%
    23:00 +22°C° 0 mm 3 m/S 718 mmHg 18%
    Mehr zeigen